Flag for Germany Weather past 2 weeks in Jena, Thuringia, Germany

Now
61 °F

Broken clouds.


Feels Like: 61 °F
Forecast: 54 / 62 °F
Wind: 13 mph from West

Location: Erfurt-Bindersleben

Current Time: Sep 1, 2014 at 1:28:44 PM

Latest Report: Sep 1, 2014 at 12:50 PM


Visibility: N/A

Pressure: 30.09 "Hg

Humidity: 68%

Dew point: 50 °F

Location of JenaLocation

Historic Weather in Jena — Graph

°F

Jena temperature yesterday

Maximum temperature yesterday: 66 °F (at 1:20 PM)
Minimum temperature yesterday: 52 °F (at 9:50 PM)
Average temperature yesterday: 59 °F

Past Weeks' High & Low Weather Summary

 TemperatureHumidityPressure
High72 °F (Aug 28, 2:20 PM)100% (Aug 21, 6:20 AM)30.09 "Hg (Aug 21, 6:20 AM)
Low43 °F (Aug 21, 5:20 AM)37% (Aug 22, 2:50 PM)29.68 "Hg (Aug 26, 8:20 AM)
Average57 °F75%29.95 "Hg
* Reported Aug 17 12:20 PM — Sep 1 12:20 PM, Jena, Weather by CustomWeather, © 2014

Note: Actual official high and low records may vary slightly from our data, if they occured in-between our weather recording intervals... More about our weather records

Advertising

Jena weather history for previous 24 hours

 ConditionsComfort  
Time TempWeatherWind HumidityBarometerVisibility
12:20 PM
Sep 1
59 °FBroken clouds.12 mph72%30.09 "HgN/A
11:50 AM59 °FBroken clouds.9 mph72%30.09 "HgN/A
11:20 AM57 °FBroken clouds.9 mph77%30.09 "HgN/A
10:50 AM57 °FPartly sunny.8 mph77%30.09 "HgN/A
10:20 AM57 °FPartly sunny.9 mph82%30.09 "HgN/A
9:50 AM55 °FPartly sunny.9 mph82%30.07 "HgN/A
9:20 AM55 °FScattered clouds.10 mph88%30.07 "HgN/A
8:50 AM55 °FScattered clouds.12 mph88%30.07 "HgN/A
8:20 AM54 °FScattered clouds.10 mph94%30.07 "HgN/A
7:50 AM54 °FScattered clouds.8 mph94%30.07 "HgN/A
7:20 AM52 °FPassing clouds.8 mph94%30.07 "HgN/A
6:50 AM52 °FPassing clouds.9 mph94%30.04 "HgN/A
6:20 AM52 °FPassing clouds.8 mph94%30.04 "HgN/A
5:50 AM50 °FPassing clouds.8 mph100%30.04 "HgN/A
5:20 AM50 °FPassing clouds.8 mph100%30.04 "HgN/A
4:50 AM52 °FPassing clouds.10 mph94%30.04 "HgN/A
4:20 AM52 °FPassing clouds.9 mph94%30.01 "HgN/A
3:50 AM52 °FPassing clouds.10 mph94%30.01 "HgN/A
3:20 AM54 °FPassing clouds.9 mph88%30.01 "HgN/A
2:50 AM52 °FPassing clouds.8 mph94%30.01 "HgN/A
2:20 AM52 °FClear.9 mph94%30.01 "Hg10 mi
1:50 AM52 °FClear.9 mph94%30.01 "Hg10 mi
1:20 AM52 °FClear.9 mph94%29.98 "Hg10 mi
12:50 AM54 °FClear.9 mph88%29.98 "Hg10 mi
12:20 AM54 °FClear.9 mph88%29.98 "Hg10 mi
11:50 PM
Aug 31
54 °FPassing clouds.9 mph88%29.98 "HgN/A
11:20 PM54 °FPassing clouds.9 mph88%29.98 "HgN/A
10:50 PM54 °FClear.10 mph88%29.98 "Hg10 mi
10:20 PM54 °FClear.10 mph88%29.98 "Hg10 mi
9:50 PM52 °FClear.9 mph88%29.95 "Hg10 mi
9:20 PM55 °FClear.10 mph77%29.95 "Hg10 mi
8:50 PM55 °FScattered clouds.9 mph82%29.95 "HgN/A
8:20 PM55 °FPartly sunny.9 mph82%29.95 "HgN/A
7:50 PM57 °FPartly sunny.7 mph72%29.92 "HgN/A
7:20 PM59 °FScattered clouds.8 mph72%29.92 "HgN/A
6:50 PM59 °FSunny.8 mph72%29.92 "Hg10 mi
6:20 PM59 °FBroken clouds.8 mph68%29.92 "HgN/A
5:50 PM59 °FScattered showers. Partly sunny.9 mph72%29.92 "HgN/A
5:20 PM59 °FSprinkles. Broken clouds.12 mph72%29.89 "HgN/A
4:50 PM63 °FSprinkles. Scattered clouds.9 mph64%29.89 "HgN/A
4:20 PM64 °FScattered clouds.9 mph56%29.89 "HgN/A
3:50 PM63 °FScattered clouds.10 mph59%29.89 "HgN/A
3:20 PM63 °FScattered clouds.9 mph64%29.89 "HgN/A
2:50 PM63 °FScattered clouds.8 mph59%29.89 "HgN/A
2:20 PM63 °FScattered clouds.9 mph68%29.92 "HgN/A
1:50 PM63 °FScattered clouds.10 mph64%29.92 "HgN/A
1:20 PM66 °FScattered clouds.8 mph60%29.92 "HgN/A
Weather by CustomWeather, © 2014

See weather overviewHow to use our weather pages